Regional Weather Roundup
Issued by NWS Green Bay, WI

Home | Current Version | Previous Version | Text Only | Print | Product List | Glossary On
Versions: 1 2 3 4 5 6 7 8 9 10 11 12 13 14 15 16 17 18 19 20 21 22 23 24 25 26 27 28 29 30 31 32 33 34 35 36 37 38 39 40 41 42 43 44 45 46 47 48 49 50
000
ASUS43 KGRB 270710
RWRGRB

NORTH-CENTRAL AND NORTHEAST WISCONSIN REGIONAL WEATHER ROUNDUP
NATIONAL WEATHER SERVICE GREEN BAY WI
100 AM CST SAT DEC 27 2014

WIZ005-009-010>012-018-019-270800-
NORTH CENTRAL WISCONSIN

CITY           SKY/WX    TMP DP  RH WIND       PRES   REMARKS
IRONWOOD       CLOUDY    28  28 100 CALM      29.99F
MANITOWISH WTR LGT SNOW  28  28 100 N3        29.99S
ARBOR VITAE    LGT SNOW  32  30  94 N3        29.98S
EAGLE RIVER    LGT SNOW  29  29 100 CALM      29.96F
LAND O LAKES   LGT SNOW  29  29  96 N3        29.99S
RHINELANDER    LGT SNOW  29  28  96 NE6       29.97F VSB 3/4
PHILLIPS       LGT SNOW  28  27  96 N6        29.98F
ANTIGO         LGT SNOW  31  31 100 NE3       29.95S
TOMAHAWK       LGT SNOW  29  28  96 CALM      29.97F VSB 1
MERRILL        LGT SNOW  31  31 100 NE3       29.96F VSB 1
$$

WIZ013-073-270800-
NORTHEAST WISCONSIN

CITY           SKY/WX    TMP DP  RH WIND       PRES   REMARKS
IRON MOUNTAIN  LGT SNOW  32  30  92 N3        29.97F FOG
MARINETTE      CLOUDY    34  30  86 NE5       29.98F
OCONTO         CLOUDY    33  33 100 CALM      29.99F
$$

WIZ017-030-035>037-045-270800-
CENTRAL WISCONSIN

CITY           SKY/WX    TMP DP  RH WIND       PRES   REMARKS
MEDFORD        MIX PCPN  30  29  97 NE6       29.94F VSB 1
WAUSAU         LGT SNOW  33  31  92 CALM      29.95S FOG
MOSINEE        FLURRIES  32  32 100 NE6       29.96F
MARSHFIELD     CLOUDY    33  31  92 NE10      29.91F FOG
WISC RAPIDS    CLOUDY    33  31  92 E7        29.96F FOG
STEVENS POINT  CLOUDY    31  31 100 NE8       29.95F FOG
WAUPACA        FOG       35  34  96 CALM      29.97S VSB 1
SHAWANO        CLOUDY    34  33  96 E5        29.99S FOG
CLINTONVILLE   FOG       32  32 100 NE6       29.97F VSB 3/4
$$

WIZ038-039-048-051-270800-
FOX VALLEY

CITY           SKY/WX    TMP DP  RH WIND       PRES   REMARKS
NWS GREEN BAY  CLOUDY    34  32  92 NE13      29.97F FOG
APPLETON       FOG       32  32 100 E5        29.96F VSB 1
OSHKOSH        PTCLDY    31  29  92 NE3       29.95F FOG
FOND DU LAC    MOCLDY    32  31  96 S3        29.95F FOG
$$

WIZ022-050-052-270800-
EAST CENTRAL WISCONSIN

CITY           SKY/WX    TMP DP  RH WIND       PRES   REMARKS
STURGEON BAY   CLOUDY    36  34  93 NE3       30.00F
MANITOWOC      CLOUDY    36  36 100 CALM      29.98F FOG
SHEBOYGAN      FOG       34  34 100 CALM      29.98S VSB 1/4
$$

LMZ563-521-522-541>543-270800-
LAKESHORE

STATION/POSITION TIME  TEMP    WIND        PRES    VSBY  WAVE
                       AIR SEA DIR/SP/G                  HT/PER
                 (UTC) (F)     (DEG/KT/KT) (MB)    (MI)  (FT/S)
SHEBOYGAN LKSHOR 0700   36 39   90/  1/  1 1016.0F
KEWAUNEE LKSHORE 0700   36      30/  3/  5 1014.8R
ALGOMA MARINA    0600           70/  9/ 12   N/A
NORTHPORT PIER   0700   35     350/  3/  4 1015.9F
SISTER BAY LKSHO 0700             CALM       N/A
CHAMBERS ISLAND  0700   34      20/  7/  9 1016.3S
MENOMINEE LKSHOR 0700   34      20/  9/ 10 1016.3F
$$


USA.gov is the U.S. government's official web portal to all federal, state and local government web resources and services.